User: anonymous   Login
Location: Blienschwiller
(48.3416°N, 7.4182°E)
Time: 07:30:31
(UTC+00:00)
Language:

ATLAS 2AS CENTAUR R/B - Orbit

View from above orbital plane
View from above orbital plane
View from above satellite
View from above satellite

Ground track
Ground track

The orbit data is extracted from the following two-line orbital elements,

1 28096U 03054B   20152.94145198 0.00000090  00000-0  13882-3 0    05
2 28096  63.6933 208.9736 0233231 230.1601 129.8399 13.40861700    00
Epoch (UTC): 31 May 2020 22:35:41
Eccentricity: 0.0233231
inclination: 63.6933°
perigee height: 931 km
apogee height: 1280 km
right ascension of ascending node: 208.9736°
argument of perigee: 230.1601°
revolutions per day: 13.40861700
mean anomaly at epoch: 129.8399°
orbit number at epoch: 0

The dashed part of the orbit path shows where the satellite is in the earth's shadow,  

DLR